Location: Ca�ada Alisos
(32.5079°N, 116.8004°W)
Time: 04:00:33
(UTC+00:00)

Daily predictions for brighter satellites

Satellite Brightness Start Highest point End
(mag) Time Altitude Azimuth Time Altitude Azimuth Time Altitude Azimuth
BREEZE-M R/B 3.3 00:53:09 10° NW 00:56:50 84° NE 01:06:36 10° SE
Cosmos 1939 Rocket 3.0 01:00:18 10° SSE 01:04:21 57° ENE 01:08:22 10° N
Nadezhda 4 Rocket 4.1 00:58:55 10° N 01:05:17 88° E 01:11:36 10° S
Cosmos 1812 3.9 01:03:14 10° SE 01:06:17 23° E 01:09:21 10° NE
USA 276 3.7 01:08:44 10° NNW 01:11:02 18° NNE 01:13:19 10° E
H-2A R/B 2.7 01:09:25 10° SE 01:14:02 32° ENE 01:18:32 10° N
CZ-4C R/B 4.2 01:08:59 10° N 01:14:06 19° NE 01:19:40 10° E
CZ-3B Rocket 4.4 01:13:41 10° SW 01:17:34 25° SSE 01:27:55 10° ESE
COSMO-SKYMED 1 3.3 01:14:09 10° NNE 01:18:04 32° E 01:21:56 10° SSE
Cosmos 1092 Rocket 4.0 01:14:10 10° N 01:20:29 66° E 01:26:44 10° SSE
FengYun 1-2 T 4.4 01:15:30 10° SSE 01:21:06 83° WSW 01:26:42 10° NNW
Cosmos 1656 4.0 01:17:12 10° NNW 01:22:45 74° WSW 01:28:21 10° SSE
Cosmos 1428 Rocket 4.5 01:18:24 10° N 01:24:27 60° E 01:30:32 10° SSE
Cosmos 1633 Rocket 4.3 01:24:48 10° NNE 01:28:04 20° ENE 01:31:20 10° SE
Cosmos 1602 3.6 01:25:47 10° N 01:29:38 71° E 01:33:29 10° SSE
Cosmos 841 Rocket 3.7 01:24:35 10° SSW 01:29:45 77° WNW 01:34:54 10° NNE
Cosmos 1782 2.9 01:25:50 10° S 01:29:49 83° W 01:33:50 10° N
Aurora 2 Rocket 4.3 01:28:18 10° WSW 01:32:42 37° S 01:38:47 10° ESE
Okean O Rocket 2.6 01:29:46 10° SE 01:33:23 25° ENE 01:37:00 10° NNE
Cosmos 1697 Rocket 2.6 01:30:06 10° NNW 01:35:42 66° ENE 01:41:15 10° SSE
Cosmos 1151 Rocket 3.1 01:31:55 10° S 01:36:06 54° E 01:40:19 10° NNE
Cosmos 1980 Rocket 2.8 01:34:35 10° N 01:39:41 34° ENE 01:44:43 10° SE
Cosmos 2369 4.0 01:34:37 10° N 01:40:06 45° ENE 01:45:31 10° SE
NOAA 6 4.5 01:35:18 10° S 01:40:24 66° WSW 01:45:31 10° NNW
Cosmos 2279 Rocket 4.0 01:34:31 10° S 01:40:39 64° E 01:46:47 10° NNE
Cosmos 1937 Rocket 3.5 01:35:26 10° N 01:40:44 64° ENE 01:45:58 10° SSE
Cosmos 1627 Rocket 4.4 01:35:14 10° N 01:41:24 83° E 01:47:30 10° S
CZ-2D R/B 3.1 01:40:03 10° SSE 01:43:52 78° ENE 01:47:42 10° N
Cosmos 2082 Rocket 2.6 01:40:40 10° SSW 01:46:18 64° WNW 01:51:56 10° NNE
Cosmos 1328 Rocket 3.6 01:47:09 10° S 01:51:28 57° E 01:55:50 10° NNE
CZ-2C R/B 1.8 01:47:41 10° SW 01:51:46 47° SSE 01:53:47 25° E
Cosmos 1666 Rocket 3.7 01:49:05 10° N 01:53:23 51° E 01:57:38 10° SSE
Cosmos 372 Rocket 4.1 01:48:49 10° N 01:53:55 51° ENE 01:59:00 10° SSE
Meteor 2-21 4.5 01:51:30 10° N 01:57:36 82° W 02:03:36 10° S
Meteor 1-27 Rocket 4.5 01:56:19 10° SSE 02:00:55 28° E 02:01:40 27° ENE
Cosmos 1500 3.5 01:58:36 10° NNW 02:02:19 65° W 02:05:58 10° S
Cosmos 2278 4.1 01:59:06 10° N 02:04:25 39° ENE 02:09:40 10° SE
SKYMED 2 4.0 02:01:51 10° N 02:06:09 62° WNW 02:10:24 10° SSW
ARGOS 3.1 02:01:32 10° SSE 02:06:52 64° ENE 02:12:13 10° N
Landsat 5 3.3 02:03:11 11° NNE 02:07:10 88° W 02:11:05 10° SSW
SL-08 RB Rocket 4.0 02:05:36 10° SE 02:10:01 45° ENE 02:14:25 10° N
COSMOS 2455 4.5 02:07:39 10° WSW 02:12:54 31° WNW 02:18:12 10° N
ATLAS 5 CENTAUR R/B 3.8 02:07:48 10° SW 02:13:20 15° S 02:16:30 10° SSE
Meteor 2-6 Rocket 4.3 02:11:13 10° S 02:17:03 80° W 02:22:46 10° N
Meteor 2-15 4.3 02:11:47 10° S 02:17:53 80° E 02:24:00 10° N
GPS 2-04 Rocket1 2.7 02:16:38 10° WNW 02:20:43 64° N 02:21:03 61° NE
DEBRIS 2.6 02:20:20 10° WSW 02:22:31 58° NW 02:22:37 58° NNW
USA 229 DEB 4.4 02:15:41 10° NW 02:23:10 64° WSW 02:30:58 10° SSE
USA 229 4.4 02:15:47 10° NW 02:23:16 65° WSW 02:31:03 10° SSE
DMSP B5D2-2 4.0 02:21:26 29° NNE 02:24:04 64° ESE 02:29:13 10° S
H-2A R/B 3.5 02:26:39 24° SE 02:26:39 24° SE 02:28:49 10° SSE
CZ-4B R/B 3.5 02:20:17 10° S 02:25:43 67° WSW 02:31:05 10° NNW
CZ-4C R/B 3.4 02:25:26 45° NNW 02:26:08 58° WNW 02:29:25 10° SSW
Cosmos 1655 Rocket 4.0 02:19:56 10° N 02:26:13 56° E 02:32:24 10° SSE
deb Chang Zheng 4 4.1 02:24:01 10° S 02:28:14 59° WSW 02:32:30 10° NNW
USA 234 3.3 02:23:40 10° SE 02:30:14 82° SW 02:36:48 10° NW
Cosmos 1666 3.4 02:28:16 10° NNW 02:31:53 50° W 02:35:27 10° S
Cosmos 1515 Rocket 3.5 02:28:24 10° S 02:32:52 88° W 02:34:03 49° N
NOSS 3-3 (A) 4.2 02:29:24 10° S 02:33:55 39° SE 02:33:55 39° SE
NOSS 3-3 (C) 4.2 02:29:30 10° S 02:33:59 39° SE 02:33:59 39° SE
CZ-2C R/B 4.0 02:30:41 10° N 02:35:20 35° WNW 02:39:58 10° SW
Meteor 1-10 Rocket 4.4 02:30:40 10° SSW 02:36:28 75° W 02:41:51 12° N
X-37B 2.8 02:36:32 10° WSW 02:37:48 23° WSW 02:37:48 23° WSW
BREEZE-M DEB (TANK) 4.4 02:37:41 10° SSW 02:38:26 14° S 02:38:26 14° S
Cosmos 836 Rocket 4.4 02:41:36 10° SSW 02:46:52 85° ESE 02:47:13 78° NE
USA 276 4.5 02:44:15 10° WNW 02:45:51 23° W 02:45:51 23° W
Feng Yun 1-1 Rocket 4.3 02:42:17 10° SSE 02:48:13 86° WSW 02:54:09 10° NNW
Cosmos 1867 3.5 02:46:24 10° SSW 02:51:23 71° SSE 02:51:23 71° SSE
H-2A R/B 4.3 02:49:15 10° SSW 02:53:24 23° W 02:57:28 10° NW
APEX 4.5 02:50:10 10° SW 02:54:07 40° WNW 02:54:07 40° WNW
CZ-4C R/B 3.0 02:55:49 10° NNW 03:03:38 82° ENE 03:07:13 40° SE
USA 32 4.5 03:00:30 10° SSW 03:05:38 59° W 03:06:21 53° NW
Okean O Rocket 3.9 03:06:05 10° SSW 03:09:36 23° W 03:13:09 10° NW
Cosmos 1980 Rocket 4.2 03:18:51 10° NW 03:23:26 26° WSW 03:28:00 10° SSW
CZ-2C R/B 4.2 03:27:10 10° W 03:27:57 15° W 03:27:57 15° W
ATLAS 3B CENTAUR R/B 4.2 03:44:38 10° W 04:03:33 74° S 04:04:12 73° SSE
Cosmos 2369 Rocket 3.1 11:47:55 44° E 11:47:55 44° E 11:52:41 10° NE
